[[{"header":{"parameterUnit":"m.s-1","parameterCategory":1,"la1":30.2992,"la2":30.254,"lo1":-89.0895,"lo2":-89.0443,"dy":0.0025,"dx":0.0025,"nx":19,"ny":19,"refTime":"2026-05-09T21:00:00:Z","depth":0,"parameterNumber":2,"parameterNumberName":"U-component_of_WINDS"},"data":[0,0,0,-3.3299,-3.3299,-3.3315,-3.3315,-3.3359,-3.336,0,0,0,0,0,0,0,0,0,0,0,-3.331,-3.331,-3.3298,-3.3299,-3.3315,-3.3315,-3.3359,-3.336,0,0,0,0,0,0,0,0,0,0,0,-3.3309,-3.331,-3.3311,-3.3299,-3.3315,-3.3315,-3.3359,-3.3338,0,0,0,0,0,0,0,0,0,0,-3.3319,-3.3345,-3.331,-3.3311,-3.33,-3.3315,-3.3315,-3.3337,-3.334,-3.3363,0,-3.3388,0,-3.3375,-3.3364,-3.3365,0,0,0,-3.3288,-3.3343,-3.3333,-3.3311,-3.33,-3.3315,-3.3304,-3.3338,-3.3341,-3.3367,-3.3389,-3.339,-3.3376,-3.3365,-3.3365,-3.3538,-3.3539,0,0,-3.3287,-3.3321,-3.3331,-3.3335,-3.3335,-3.3304,-3.3305,-3.334,-3.3366,-3.3389,-3.339,-3.3376,-3.3365,-3.3366,-3.3537,-3.3538,0,0,0,-3.3292,-3.3321,-3.3309,-3.3334,-3.3335,-3.3305,-3.3306,-3.3364,-3.3357,-3.339,-3.3377,-3.3366,-3.3366,-3.3535,-3.3537,-3.3636,0,0,0,-3.3291,-3.3324,-3.3309,-3.3331,-3.3335,-3.335,-3.333,-3.3355,-3.3358,-3.3377,-3.3366,-3.3367,-3.3534,-3.3536,-3.363,-3.3678,0,0,0,-3.3303,-3.3325,-3.3333,-3.3332,-3.334,-3.3349,-3.3343,-3.3355,-3.335,-3.3365,-3.3367,-3.3533,-3.3536,-3.3625,-3.3669,-3.3733,0,0,0,-3.3326,-3.3422,-3.3335,-3.3436,-3.334,-3.341,-3.3343,-3.3393,-3.3417,-3.3366,-3.3534,-3.3537,-3.3623,-3.3663,-3.3727,-3.3792,-3.3822,0,0,-3.3465,-3.344,-3.3496,-3.3419,-3.3513,-3.3405,-3.3513,-3.3503,-3.3474,-3.3518,-3.3522,-3.3632,-3.3668,-3.3731,-3.3981,-3.4006,0,0,0,-3.3552,-3.3593,-3.361,-3.3635,-3.3629,-3.3628,-3.3598,-3.3594,-3.3629,-3.3504,-3.3672,-3.3692,-3.3728,-3.3757,-3.3778,-3.3806,-3.3552,-3.3552,-3.3552,-3.3799,-3.3754,-3.3845,-3.3803,-3.3827,-3.3794,-3.3809,-3.3798,-3.3748,-3.3789,-3.3802,-3.3958,-3.3994,-3.4009,-3.4039,-3.3832,-3.3833,-3.3833,-3.3833,-3.3998,-3.4049,-3.3978,-3.404,-3.3993,-3.4045,-3.4016,-3.3979,-3.4019,-3.3945,-3.3974,-3.3897,-3.4038,-3.4061,-3.384,-3.3839,-3.3838,-3.3838,-3.3837,-3.4155,-3.4171,-3.4164,-3.4193,-3.4221,-3.4174,-3.4216,-3.4172,-3.4131,-3.4159,-3.4168,-3.4166,-3.4158,-3.4166,-3.4167,-3.4168,-3.4168,-3.4168,-3.4169,-3.432,-3.4308,-3.4349,-3.435,-3.4358,-3.4364,-3.4331,-3.4338,-3.4335,-3.43,-3.4299,-3.4245,-3.4059,-3.4014,-3.4177,-3.4176,-3.4174,-3.4174,-3.4173,-3.4539,-3.4481,-3.4545,-3.4553,-3.4549,-3.4579,-3.4521,-3.4539,-3.4539,-3.4561,-3.4499,-3.437,-3.434,-3.4323,-3.4285,-3.4509,-3.4509,-3.4509,-3.4509,-3.4671,-3.4651,-3.4704,-3.4721,-3.4732,-3.4685,-3.4757,-3.4732,-3.4697,-3.4693,-3.4654,-3.46,-3.4585,-3.4564,-3.4542,-3.4506,-3.4781,-3.4781,-3.4781,-3.4802,-3.4781,-3.4851,-3.4815,-3.4808,-3.4803,-3.4869,-3.489,-3.4839,-3.4791,-3.469,-3.4678,-3.459,-3.4563,-3.4514,-3.4481,-3.4413,0,0]},{"header":{"parameterUnit":"m.s-1","parameterCategory":1,"la1":30.2992,"la2":30.254,"lo1":-89.0895,"lo2":-89.0443,"dy":0.0025,"dx":0.0025,"nx":19,"ny":19,"refTime":"2026-05-09T21:00:00:Z","depth":0,"parameterNumber":3,"parameterNumberName":"V-component_of_WINDS"},"data":[0,0,0,-0.2319,-0.2317,-0.221,-0.2209,-0.2083,-0.2082,0,0,0,0,0,0,0,0,0,0,0,-0.2359,-0.2358,-0.232,-0.2317,-0.221,-0.2209,-0.2083,-0.2082,0,0,0,0,0,0,0,0,0,0,0,-0.2359,-0.2358,-0.2357,-0.2317,-0.221,-0.2209,-0.2084,-0.2161,0,0,0,0,0,0,0,0,0,0,-0.2263,-0.2306,-0.2358,-0.2357,-0.2316,-0.221,-0.2209,-0.2164,-0.2156,-0.2137,0,-0.2122,0,-0.21,-0.2075,-0.2074,0,0,0,-0.2312,-0.2313,-0.2278,-0.2357,-0.2315,-0.221,-0.2257,-0.2159,-0.215,-0.2126,-0.2121,-0.2116,-0.2098,-0.2074,-0.2073,-0.1983,-0.1983,0,0,-0.2318,-0.2343,-0.2284,-0.2272,-0.229,-0.226,-0.2253,-0.2153,-0.2149,-0.212,-0.2112,-0.2096,-0.2073,-0.2072,-0.1984,-0.1983,0,0,0,-0.2338,-0.2348,-0.2314,-0.2278,-0.2257,-0.2257,-0.2249,-0.2154,-0.214,-0.2111,-0.2095,-0.2072,-0.2071,-0.1984,-0.1983,-0.2001,0,0,0,-0.2342,-0.236,-0.2317,-0.2332,-0.226,-0.2204,-0.2252,-0.2147,-0.2135,-0.2095,-0.2072,-0.207,-0.1984,-0.1984,-0.2,-0.2004,0,0,0,-0.2363,-0.2362,-0.2349,-0.2333,-0.2288,-0.2205,-0.2186,-0.2144,-0.2126,-0.2074,-0.207,-0.1984,-0.1984,-0.2,-0.2004,-0.1988,0,0,0,-0.2394,-0.2366,-0.235,-0.2313,-0.2289,-0.2217,-0.2187,-0.2131,-0.2089,-0.2072,-0.1984,-0.1983,-0.2,-0.2004,-0.1988,-0.1979,-0.1978,0,0,-0.2373,-0.2365,-0.2341,-0.2323,-0.226,-0.2231,-0.217,-0.2107,-0.2079,-0.2017,-0.2014,-0.2,-0.2004,-0.1988,-0.1962,-0.1962,0,0,0,-0.2343,-0.2326,-0.2304,-0.2265,-0.2216,-0.2174,-0.2118,-0.2094,-0.204,-0.2052,-0.1989,-0.1991,-0.198,-0.1975,-0.1974,-0.1964,-0.1982,-0.1982,-0.1982,-0.2351,-0.2316,-0.2274,-0.2226,-0.2188,-0.213,-0.2096,-0.2054,-0.203,-0.2016,-0.1997,-0.1986,-0.198,-0.198,-0.1969,-0.1989,-0.199,-0.199,-0.199,-0.2318,-0.2289,-0.2256,-0.2204,-0.2167,-0.2122,-0.2065,-0.2049,-0.2002,-0.1997,-0.1986,-0.1984,-0.198,-0.1969,-0.1991,-0.199,-0.199,-0.199,-0.199,-0.232,-0.2299,-0.2271,-0.2211,-0.2168,-0.212,-0.2076,-0.2043,-0.2012,-0.2002,-0.1978,-0.1978,-0.1973,-0.1993,-0.1993,-0.1993,-0.1993,-0.1993,-0.1993,-0.2333,-0.23,-0.2267,-0.2213,-0.2183,-0.214,-0.208,-0.205,-0.2008,-0.1988,-0.1988,-0.1965,-0.1986,-0.1992,-0.1992,-0.1992,-0.1992,-0.1992,-0.1992,-0.2312,-0.2311,-0.2261,-0.2231,-0.2164,-0.2123,-0.2082,-0.2023,-0.1993,-0.1973,-0.1952,-0.1973,-0.1962,-0.1962,-0.1967,-0.196,-0.196,-0.196,-0.196,-0.2314,-0.2305,-0.2245,-0.22,-0.2151,-0.2109,-0.2052,-0.2006,-0.1957,-0.1936,-0.1933,-0.1936,-0.1938,-0.1926,-0.1927,-0.1931,-0.1914,-0.1914,-0.1914,-0.2299,-0.2284,-0.2242,-0.2195,-0.2139,-0.2093,-0.2038,-0.1987,-0.1932,-0.1912,-0.1919,-0.1921,-0.1927,-0.193,-0.1911,-0.1914,-0.192,0,0]}]]